Tracking 19908 objects as of 18-Oct-2019
HD Live streaming from Space Station
objects crossing your sky now

COSMOS 1275 DEB

Track COSMOS 1275 DEB now!
10-day predictions


NORAD ID: 15766
Int'l Code: 1981-053KE
Perigee: 812.2 km
Apogee: 823.3 km
Inclination: 82.9 °
Period: 101.1 minutes
Semi major axis: 7188 km
RCS: 0.0112 m2 (small)
Launch date: June 4, 1981
Source: Commonwealth of Independent States (former USSR) (CIS)
Launch site: PLESETSK MISSILE AND SPACE COMPLEX (PKMTR)

Note: This is SATELLITE DEBRIS
aabbcc
Your satellite tracking list
Your tracking list is empty




NASA's NSSDC Master Catalog

Two Line Element Set (TLE):
1 15766U 81053KB  19290.50243554  .00000734  00000-0  30997-3 0  9996
2 15766  82.9413 115.2493 0007685  98.4542 261.7513 14.24372728766427
Source of the keplerian elements: AFSPC